Flag for Mexico Weather past 2 weeks in Mexicali, Baja California, Mexico

Now
100 °F

Sunny.


Feels Like: 104 °F
Forecast: 82 / 98 °F
Wind: 5 mph from North

Location: Imperial County Airport

Current Time: Sep 17, 2014 at 3:26:43 PM

Latest Report: Sep 17, 2014 at 2:53 PM


Visibility: 10 mi

Pressure: 29.65 "Hg

Humidity: 33%

Dew point: 66 °F

Location of MexicaliLocation

Historic Weather in Mexicali — Graph

°F

Mexicali temperature yesterday

Maximum temperature yesterday: 101 °F (at 1:53 PM)
Minimum temperature yesterday: 86 °F (at 5:53 AM)
Average temperature yesterday: 92 °F

Past Weeks' High & Low Weather Summary

 TemperatureHumidityPressure
High108 °F (Sep 2, 3:53 PM)82% (Sep 6, 3:53 AM)29.88 "Hg (Sep 6, 3:53 AM)
Low77 °F (Sep 12, 5:53 AM)9% (Sep 2, 3:53 PM)29.50 "Hg (Sep 3, 6:53 PM)
Average92 °F41%29.71 "Hg
* Reported Sep 2 1:53 PM — Sep 17 1:53 PM, Mexicali, Weather by CustomWeather, © 2014

Note: Actual official high and low records may vary slightly from our data, if they occured in-between our weather recording intervals... More about our weather records

Advertising

Mexicali weather history for previous 24 hours

 ConditionsComfort  
Time TempWeatherWind HumidityBarometerVisibility
1:53 PM
Sep 17
98 °FSunny.8 mph35%29.68 "Hg10 mi
12:53 PM97 °FSunny.No wind36%29.71 "Hg10 mi
11:53 AM94 °FSunny.3 mph41%29.73 "Hg10 mi
10:53 AM94 °FSunny.5 mph40%29.75 "Hg10 mi
9:53 AM92 °FSunny.5 mph44%29.75 "Hg10 mi
8:53 AM89 °FSunny.No wind46%29.75 "Hg10 mi
7:53 AM84 °FSunny.5 mph57%29.74 "Hg10 mi
6:53 AM85 °FClear.No wind51%29.73 "Hg10 mi
5:53 AM85 °FPassing clouds.3 mph51%29.72 "Hg10 mi
4:53 AM85 °FPassing clouds.5 mph50%29.72 "Hg10 mi
3:53 AM87 °FClear.No wind46%29.71 "Hg10 mi
2:53 AM84 °FClear.No wind53%29.72 "Hg10 mi
1:53 AM84 °FClear.No wind53%29.72 "Hg10 mi
12:53 AM87 °FClear.No wind48%29.73 "Hg10 mi
11:53 PM
Sep 16
89 °FClear.3 mph43%29.73 "Hg10 mi
10:53 PM89 °FPartly cloudy.No wind43%29.75 "Hg10 mi
9:53 PM91 °FPassing clouds.No wind39%29.75 "Hg10 mi
8:53 PM91 °FClear.12 mph41%29.74 "Hg10 mi
7:53 PM93 °FClear.8 mph38%29.72 "Hg10 mi
6:53 PM95 °FSunny.15 mph39%29.71 "Hg10 mi
5:53 PM98 °FSunny.14 mph34%29.70 "Hg10 mi
4:53 PM98 °FSunny.18 mph33%29.69 "Hg10 mi
3:53 PM101 °FSunny.18 mph32%29.69 "Hg10 mi
Weather by CustomWeather, © 2014

See weather overviewHow to use our weather pages